Regional Weather Roundup
Issued by NWS State College, PA

Home | Current Version | Previous Version | Text Only | Print | Product List | Glossary Off
Versions: 1 2 3 4 5 6 7 8 9 10 11 12 13 14 15 16 17 18 19 20 21 22 23 24 25 26 27 28 29 30 31 32 33 34 35 36 37 38 39 40 41 42 43 44 45 46 47 48 49 50

000
ASUS41 KCTP 011010
RWRCTP

REGIONAL WEATHER ROUNDUP
NATIONAL WEATHER SERVICE STATE COLLEGE PA
600 AM EDT WED OCT 01 2014

Note: "fair" indicates few or no clouds below 12,000 feet with no
significant weather and/or obstructions to visibility.

* = STATION THAT DOES NOT REPORT PRECIPITATION /E.G. RAIN...SNOW...ETC/
    THUNDER OR FOG.

PAZ002>004-007>009-013>016-020>023-029>032-011100-
WESTERN PENNSYLVANIA

CITY           SKY/WX    TMP DP  RH WIND       PRES   REMARKS
ERIE           PTCLDY    57  54  89 CALM      29.99S
MEADVILLE      FOG       55  53  93 NE6       30.00R VSB 1/4
FRANKLIN*      CLOUDY    54  50  87 NE3       30.01S VSB 1/4
NEW CASTLE       N/A     55  55 100 N6        30.00S FOG
BEAVER COUNTY  NOT AVBL
BUTLER*        CLOUDY    54  52  94 CALM      29.99F VSB 1/4
PITTSBURGH INT FOG       56  55  97 CALM      29.97S VSB 1
PITTSBURGH     FOG       56  53  90 CALM      29.97R VSB<1/4
INDIANA*       CLOUDY    52  52 100 CALM      30.02R
LATROBE        FOG       48  48 100 CALM      29.98S VSB 0
WASHINGTON CO* CLOUDY    55  54  94 CALM      29.99S
$$

PAZ004>006-010>012-017>019-024>028-033>037-041-042-045-046-049>053-011100-
CENTRAL PENNSYLVANIA

CITY           SKY/WX    TMP DP  RH WIND       PRES   REMARKS
BRADFORD       FOG       50  49  96 CALM      30.02R VSB 1/4
DUBOIS         FOG       52  52 100 NE3       29.99R VSB 1/4
CLEARFIELD     FOG       54  54 100 CALM      30.00S VSB 1/4
JOHNSTOWN      MOCLDY    53  51  93 CALM      30.00R
ALTOONA        CLOUDY    57  57 100 CALM      30.00R FOG
STATE COLLEGE  FOG       52  52 100 CALM      29.99S VSB 1/8
WILLIAMSPORT   CLOUDY    60  58  92 CALM      29.98S
SELINSGROVE    CLOUDY    60  58  92 CALM      30.00R FOG
FT INDIANTOWN  FOG       57  57 100 CALM      30.00R VSB 1
CAPITAL CITY   CLOUDY    61  58  90 NE6       29.99R
HARRISBURG     CLOUDY    60  58  92 NE5       29.98R FOG
YORK           MOCLDY    57  56  96 CALM      29.98S FOG
$$

PAZ038>040-043-044-047-048-054-055-060>062-067>071-011100-
EASTERN PENNSYLVANIA

CITY           SKY/WX    TMP DP  RH WIND       PRES   REMARKS
SCRANTON       MOCLDY    60  56  86 NE3       30.00R
MOUNT POCONO   CLOUDY    57  53  86 CALM      30.02S
ALLENTOWN      CLOUDY    59  56  89 NE6       30.00R FOG
QUAKERTOWN*    PTSUNNY   59  57  94 NE3       30.00S
READING        MOCLDY    61  59  93 NE3       29.98R FOG
LANCASTER      FOG       57  57 100 CALM      29.98S VSB 1
COATESVILLE    MOSUNNY   57  57 100 E3        29.99S FOG
POTTSTOWN      MOCLDY    59  57  93 NE6       30.00R
BLUE BELL      PTCLDY    59  59 100 CALM      29.98S
DOYLESTOWN     MOCLDY    58  58 100 VRB3      29.99R
WILLOW GROVE   NOT AVBL
NORTH PHILA    CLOUDY    63  56  78 NE7       30.00R
PHILADELPHIA   CLOUDY    64  58  80 NE8       29.98R
$$



USA.gov is the U.S. government's official web portal to all federal, state and local government web resources and services.